Location: Twentynine Palms Airport
(34.1316°N, 115.9458°W)
Time: 08:34:59
(UTC-07:00)

Oscar 19 - Visible Passes

Search period start: 26 April 2018 00:00
Search period end: 06 May 2018 00:00
Orbit: 774 x 790 km, 98.6° (Epoch: 25 April)

Date Brightness Start Highest point End Pass type
(mag) Time Alt. Az. Time Alt. Az. Time Alt. Az.
26 Apr 13.2 01:31:51 10° NE 01:32:56 15° NE 01:32:56 15° NE visible
26 Apr 12.2 03:10:46 10° N 03:13:29 25° NNW 03:13:29 25° NNW visible
27 Apr 12.1 02:38:30 10° N 02:41:19 33° N 02:41:19 33° N visible
28 Apr 12.5 02:06:42 10° NNE 02:09:10 28° NNE 02:09:10 28° NNE visible
28 Apr 12.7 03:47:47 10° NNW 03:49:43 14° NW 03:49:43 14° NW visible
29 Apr 13.1 01:35:29 10° NE 01:37:00 17° NE 01:37:00 17° NE visible
29 Apr 12.2 03:14:37 10° N 03:17:34 25° NW 03:17:34 25° NW visible
30 Apr 11.9 02:42:17 10° N 02:45:24 36° N 02:45:24 36° N visible
01 May 12.2 02:10:26 10° NNE 02:13:14 32° NNE 02:13:14 32° NNE visible
01 May 12.7 03:51:48 10° NW 03:53:47 13° WNW 03:53:47 13° WNW visible
02 May 12.9 01:39:07 10° NE 01:41:04 20° NE 01:41:04 20° NE visible
02 May 12.1 03:18:28 10° NNW 03:21:37 25° NW 03:21:37 25° NW visible
03 May 11.7 02:46:04 10° N 02:49:27 38° NNW 02:49:27 38° NNW visible
04 May 12.0 02:14:10 10° NNE 02:17:17 36° NNE 02:17:17 36° NNE visible
04 May 12.7 03:55:54 10° NW 03:57:50 12° WNW 03:57:50 12° WNW visible
05 May 12.7 01:42:47 10° NE 01:45:07 23° NE 01:45:07 23° NE visible
05 May 12.1 03:22:20 10° NNW 03:25:40 24° NW 03:25:40 24° NW visible
